Simultaneous Nadir Overpasses (SNOs) Predictions

Prediction of SNOs between AQUA and GOES-15 Satellite Orbit:

Table of predicted SNOs for the next 14.0 days since TLE Epoch: 9/10/2022
Index Date Time (AQUA) AQUA Lat,Lon GOES-15 Lat,Lon Distance(km) Time Diff (sec)
1 09/11/2022 22:09:00 -0.22,-127.12 -0.35,-127.66 62.32 80
2 09/13/2022 21:56:18 0.41,-124.02 -0.35,-127.61 408.60 80
3 09/14/2022 10:17:25 0.66,-129.14 0.34,-127.65 169.89 80
4 09/16/2022 10:04:42 0.02,-126.05 0.34,-127.59 175.51 80
5 09/16/2022 22:25:58 -1.11,-131.20 -0.33,-127.52 418.84 80
6 09/18/2022 22:13:15 -0.45,-128.11 -0.33,-127.46 73.88 80
7 09/20/2022 22:00:31 0.17,-125.00 -0.32,-127.39 270.73 80
8 09/21/2022 10:21:39 0.89,-130.13 0.31,-127.43 306.82 80
9 09/23/2022 10:08:55 0.26,-127.03 0.30,-127.36 37.54 80
